DAL3305 KDTW-KBOS

Flight info

Callsign DAL3305
Flight time N/A
Altitude 37000
Route HHOWE4 LNCON JHW Q82 PONCT JFUND2
Aircraft B753/M-SDE3FGHIM3RWXY/LB1

Departure

Time 2026-05-07 00:37
Airport Detroit Metropolitan Wayne County Airport (KDTW)

Arrival

Time N/A
Airport Boston Logan International Airport (KBOS)
Time Latitude Longitude Altitude Speed Heading
2026-05-07 00:09 42.21209 -83.35593 644 ft 0 kts 120°
2026-05-07 00:25 42.21215 -83.35609 644 ft 2 kts 120°
2026-05-07 00:25 42.21223 -83.35626 644 ft 2 kts 120°
2026-05-07 00:25 42.21225 -83.35632 644 ft 1 kts 120°
2026-05-07 00:26 42.21232 -83.35656 644 ft 2 kts 97°
2026-05-07 00:26 42.21232 -83.35677 644 ft 2 kts 82°
2026-05-07 00:26 42.21228 -83.35696 644 ft 2 kts 65°
2026-05-07 00:26 42.21220 -83.35713 644 ft 2 kts 50°
2026-05-07 00:27 42.21209 -83.35727 644 ft 2 kts 34°
2026-05-07 00:27 42.21203 -83.35731 644 ft 1 kts 27°
2026-05-07 00:27 42.21202 -83.35733 644 ft 0 kts 28°
2026-05-07 00:31 42.21221 -83.35719 644 ft 8 kts 30°
2026-05-07 00:32 42.21289 -83.35667 644 ft 12 kts 30°
2026-05-07 00:32 42.21368 -83.35606 644 ft 13 kts 30°
2026-05-07 00:32 42.21446 -83.35545 644 ft 13 kts 30°
2026-05-07 00:32 42.21521 -83.35482 644 ft 13 kts 41°
2026-05-07 00:33 42.21550 -83.35361 641 ft 14 kts 87°
2026-05-07 00:33 42.21552 -83.35219 641 ft 15 kts 89°
2026-05-07 00:33 42.21510 -83.35096 641 ft 15 kts 145°
2026-05-07 00:33 42.21420 -83.35022 640 ft 15 kts 150°
2026-05-07 00:34 42.21330 -83.34950 641 ft 15 kts 149°
2026-05-07 00:34 42.21235 -83.34956 641 ft 14 kts 210°
2026-05-07 00:34 42.21149 -83.35023 641 ft 14 kts 209°
2026-05-07 00:34 42.21063 -83.35088 641 ft 14 kts 209°
2026-05-07 00:35 42.20974 -83.35152 640 ft 14 kts 208°
2026-05-07 00:35 42.20890 -83.35212 641 ft 10 kts 206°
2026-05-07 00:35 42.20857 -83.35220 641 ft 2 kts 168°
2026-05-07 00:35 42.20850 -83.35215 641 ft 2 kts 153°
2026-05-07 00:36 42.20834 -83.35195 641 ft 4 kts 124°
2026-05-07 00:36 42.20820 -83.35144 640 ft 8 kts 102°
2026-05-07 00:36 42.20866 -83.35065 639 ft 17 kts 31°
2026-05-07 00:36 42.21192 -83.34827 641 ft 96 kts 29°
2026-05-07 00:37 42.22023 -83.34214 664 ft 172 kts 27°
2026-05-07 00:37 42.23094 -83.33393 1594 ft 179 kts 27°
2026-05-07 00:37 42.24015 -83.32550 2710 ft 168 kts 38°
2026-05-07 00:37 42.24892 -83.31271 2987 ft 204 kts 47°
2026-05-07 00:38 42.25843 -83.29707 3602 ft 226 kts 48°
2026-05-07 00:38 42.26898 -83.28044 4260 ft 248 kts 46°
2026-05-07 00:38 42.28073 -83.26221 5026 ft 266 kts 47°
2026-05-07 00:38 42.29292 -83.24300 5851 ft 281 kts 47°
2026-05-07 00:39 42.30574 -83.22269 6876 ft 290 kts 47°
2026-05-07 00:39 42.31895 -83.20152 6995 ft 302 kts 51°
2026-05-07 00:39 42.32784 -83.17657 7003 ft 291 kts 78°
2026-05-07 00:39 42.32814 -83.14971 7018 ft 291 kts 98°
2026-05-07 00:40 42.32510 -83.12236 7027 ft 296 kts 99°
2026-05-07 00:40 42.32168 -83.09448 7781 ft 304 kts 100°
2026-05-07 00:40 42.31800 -83.06675 8917 ft 307 kts 101°
2026-05-07 00:40 42.31405 -83.03817 9784 ft 316 kts 102°
2026-05-07 00:41 42.30987 -83.00880 10792 ft 321 kts 102°
2026-05-07 00:41 42.30534 -82.97926 11649 ft 329 kts 104°
2026-05-07 00:41 42.30022 -82.94888 12437 ft 340 kts 105°
2026-05-07 00:41 42.29496 -82.91746 13385 ft 342 kts 105°
2026-05-07 00:42 42.28959 -82.88554 14023 ft 358 kts 106°
2026-05-07 00:42 42.28388 -82.85177 14425 ft 379 kts 106°
2026-05-07 00:42 42.27792 -82.81653 14907 ft 396 kts 106°
2026-05-07 00:42 42.27173 -82.77989 15669 ft 403 kts 106°
2026-05-07 00:43 42.26537 -82.74228 16467 ft 410 kts 107°
2026-05-07 00:43 42.25899 -82.70466 17297 ft 412 kts 108°
2026-05-07 00:43 42.25262 -82.66656 17818 ft 426 kts 104°
2026-05-07 00:43 42.25062 -82.62629 18602 ft 434 kts 90°
2026-05-07 00:44 42.25208 -82.58528 19278 ft 439 kts 90°
2026-05-07 00:44 42.25359 -82.54388 19841 ft 447 kts 90°
2026-05-07 00:44 42.25516 -82.50204 20507 ft 451 kts 90°
2026-05-07 00:44 42.25658 -82.45990 21104 ft 455 kts 92°
2026-05-07 00:45 42.25612 -82.41743 21738 ft 458 kts 93°
2026-05-07 00:45 42.25558 -82.37374 22324 ft 462 kts 93°
2026-05-07 00:45 42.25510 -82.33019 22941 ft 466 kts 95°
2026-05-07 00:45 42.25460 -82.28645 23376 ft 473 kts 94°
2026-05-07 00:46 42.25411 -82.24160 24003 ft 475 kts 94°
2026-05-07 00:46 42.25359 -82.19725 24280 ft 485 kts 94°
2026-05-07 00:46 42.25306 -82.15129 24866 ft 488 kts 95°
2026-05-07 00:46 42.25250 -82.10562 25232 ft 494 kts 95°
2026-05-07 00:47 42.25188 -82.05868 25615 ft 501 kts 95°
2026-05-07 00:47 42.25129 -82.01186 26039 ft 506 kts 94°
2026-05-07 00:47 42.25064 -81.96388 26415 ft 512 kts 95°
2026-05-07 00:47 42.24997 -81.91509 26775 ft 519 kts 94°
2026-05-07 00:48 42.24928 -81.86588 27248 ft 522 kts 95°
2026-05-07 00:48 42.24858 -81.81705 27622 ft 528 kts 95°
2026-05-07 00:48 42.24780 -81.76718 27977 ft 534 kts 95°
2026-05-07 00:48 42.24702 -81.71659 28319 ft 540 kts 95°
2026-05-07 00:49 42.24620 -81.66544 28679 ft 545 kts 95°
2026-05-07 00:49 42.24534 -81.61420 29048 ft 550 kts 95°
2026-05-07 00:49 42.24448 -81.56207 29395 ft 556 kts 95°
2026-05-07 00:49 42.24374 -81.51896 29711 ft 559 kts 96°